GFSNW_prec_cthk_204.txt.gz
RH
93 95 97 97 97 98 99 99 99 96 99 99 97 92 90 90 88 92 95 96 96 98 95 94 88 86 86 78 76 76 77 72 68 61 62 61 63 64 67 83 82 89 93 69
97 97 96 98 97 98 99 98 97 95 99 97 97 97 96 93 93 95 97 98 96 96 98 99 94 90 82 80 81 78 71 71 72 55 58 62 62 61 61 71 66 63 77 61
96 97 96 97 99 99 99 98 97 92 95 95 96 98 96 94 93 97 98 97 97 98 97 97 96 96 85 81 81 80 77 72 72 72 63 65 64 61 63 64 66 61 51 40
95 99 99 99 99 98 99 97 93 93 92 91 98 98 98 97 96 98 98 97 97 97 97 97 97 90 92 86 82 78 77 73 69 61 61 58 52 45 41 39 33 39 42 52
97 92 98 97 99 99 99 95 94 92 94 97 99 98 96 98 98 98 97 97 96 95 97 88 91 88 91 88 84 81 74 72 69 62 62 56 49 45 40 38 39 49 65 91
98 96 97 93 93 96 91 89 95 97 98 98 98 97 96 98 97 97 97 96 97 97 96 92 90 85 83 81 77 73 66 68 75 68 54 56 55 41 42 49 63 69 74 92
98 96 89 87 88 88 91 91 96 96 97 98 97 97 97 97 97 97 96 95 97 93 87 84 82 75 67 62 58 54 58 56 56 63 53 69 39 42 52 66 72 68 68 75
93 90 87 88 90 90 93 94 95 98 96 97 97 96 97 97 98 97 95 89 88 85 81 74 60 51 47 45 46 46 48 51 56 67 65 61 51 53 73 73 63 73 70 71
90 89 90 90 89 92 92 95 95 96 96 93 91 93 94 92 91 85 83 84 81 70 66 63 62 50 41 41 39 46 51 60 71 69 74 76 52 75 87 73 58 62 67 85
93 93 92 88 91 93 93 92 90 88 88 80 78 80 82 78 78 79 79 80 71 61 60 61 60 55 49 54 53 54 58 63 83 88 93 79 85 82 65 69 74 68 79 90
96 94 90 90 88 85 81 77 77 76 75 75 67 64 64 62 58 61 62 64 60 60 59 58 53 52 49 59 61 71 72 77 77 75 84 88 72 69 73 68 69 74 87 93
82 80 73 66 64 62 59 56 58 54 53 52 44 41 42 41 40 45 53 51 55 56 56 61 68 74 81 78 80 63 64 69 75 74 64 59 60 79 73 73 81 89 94 97
65 61 53 46 45 45 44 41 38 34 31 30 30 28 24 21 24 28 38 48 48 54 54 57 64 68 71 59 59 74 70 70 78 79 61 68 65 64 70 78 87 94 98 98
49 44 39 36 34 31 25 21 20 22 23 34 38 28 24 21 21 23 27 43 53 51 52 60 65 66 69 71 68 69 69 69 68 66 72 67 70 73 77 87 93 97 96 87
35 30 26 22 22 24 22 20 21 25 31 41 38 32 32 32 30 31 32 36 41 48 58 66 70 69 69 70 73 76 75 79 82 81 81 80 78 84 92 97 94 89 83 78
35 33 29 28 25 27 30 26 23 23 28 35 48 34 33 31 36 40 45 49 55 60 62 69 67 65 74 81 73 72 78 78 73 77 82 85 87 88 95 98 88 75 73 69
25 22 21 24 28 30 38 38 28 20 26 38 44 43 45 52 60 71 71 67 62 64 65 65 67 70 77 77 73 76 79 84 90 91 88 95 96 95 88 81 78 69 66 64
20 21 21 22 26 29 28 20 23 31 41 46 53 53 61 65 73 80 75 70 67 65 66 65 68 69 80 82 75 83 86 87 91 95 92 89 87 83 79 77 71 69 66 64
21 21 22 29 34 41 37 31 35 39 56 64 60 65 77 67 73 74 76 77 78 69 73 73 73 77 82 73 78 83 91 96 97 92 87 81 77 76 72 71 70 65 61 59
21 26 29 35 38 32 37 45 48 52 53 56 59 54 63 61 68 69 76 80 79 82 77 76 80 71 70 74 78 91 90 84 80 78 80 78 77 73 70 67 63 60 58 55
35 37 39 37 33 42 44 45 49 47 54 50 52 51 54 60 61 66 72 71 78 81 81 84 78 76 81 80 82 83 80 81 81 80 80 78 77 75 71 69 69 68 63 62
41 43 42 42 46 45 45 49 47 50 59 53 58 57 53 56 55 57 58 64 64 67 79 82 72 80 84 86 87 88 86 84 82 80 80 79 80 79 77 76 75 68 61 56
42 42 43 45 50 51 51 54 50 57 56 59 59 60 57 57 60 63 60 63 57 53 74 68 70 84 91 92 91 90 89 87 85 86 88 88 86 83 80 76 74 67 63 59
44 44 47 48 53 50 51 67 71 73 64 59 56 58 57 60 66 65 64 60 67 74 70 78 88 98 95 94 89 90 90 89 90 87 80 78 80 80 77 73 68 66 65 62
47 48 48 48 49 53 51 53 55 53 53 56 67 72 68 70 69 67 64 73 73 74 86 98 97 96 96 96 92 90 91 89 87 84 82 82 82 81 77 72 68 70 68 60
55 54 51 51 51 50 49 49 51 52 65 73 72 70 69 66 66 71 76 73 71 92 96 96 94 90 93 87 87 85 85 85 87 88 89 90 90 85 80 76 73 72 73 68
56 56 53 55 53 49 51 49 48 56 68 73 68 78 73 67 71 71 67 82 87 87 88 87 85 85 85 84 83 80 82 83 84 81 79 81 80 82 78 79 80 74 77 73

GFSNW_prec_cthk_210.txt.gz
RH
67 59 63 67 74 88 93 96 96 90 91 96 90 90 93 90 88 89 85 86 84 84 85 87 89 88 89 83 80 80 79 87 86 76 71 71 69 72 75 97 93 98 98 79
86 84 78 80 81 96 95 98 97 93 95 93 93 94 94 94 93 93 87 86 85 88 91 96 90 89 84 85 81 80 82 87 86 72 65 63 62 64 69 76 91 92 97 81
99 95 89 92 90 97 98 98 97 94 92 93 96 97 96 97 94 90 87 88 90 92 92 92 91 90 88 83 84 83 84 82 81 82 79 74 78 77 74 76 96 91 93 89
97 98 97 97 97 97 99 98 95 92 95 92 98 98 97 98 98 97 92 90 89 94 92 92 92 93 92 90 86 85 92 92 86 82 81 80 79 79 75 75 71 78 76 69
99 97 99 98 99 99 98 98 97 98 95 96 98 98 95 96 97 97 94 90 92 94 94 95 96 96 97 96 94 87 88 96 89 88 82 80 76 71 70 66 66 65 61 61
94 99 99 98 97 98 98 95 97 98 98 98 99 95 95 97 97 96 96 96 96 93 96 97 96 98 97 97 97 98 97 97 97 85 82 79 84 72 65 60 57 63 71 76
96 98 97 99 98 99 97 96 98 98 97 98 97 96 96 98 98 98 98 98 96 95 96 98 97 97 96 94 93 92 97 95 92 94 83 93 66 53 53 56 62 65 70 72
97 98 97 99 98 96 97 99 97 98 98 97 97 97 97 98 97 97 97 97 97 93 92 90 86 81 77 77 73 68 71 76 84 89 81 70 57 44 60 68 71 78 82 79
96 99 99 99 97 95 97 98 98 92 95 96 96 97 98 98 97 97 97 95 96 93 89 86 90 77 64 57 53 50 48 57 69 75 85 86 62 74 75 74 81 74 80 72
97 98 99 98 98 98 98 97 96 94 97 98 97 97 97 96 96 94 90 86 85 81 82 83 75 63 46 49 40 40 41 52 68 77 87 86 92 96 90 96 87 74 69 63
99 96 95 98 98 98 94 93 94 96 97 94 95 89 92 90 85 85 78 77 73 67 63 57 50 49 41 48 48 58 69 77 80 85 94 89 84 78 81 73 67 66 61 56
96 97 98 98 97 92 92 94 96 92 87 89 87 83 76 69 70 64 61 52 42 36 38 40 41 47 48 47 56 45 61 69 82 79 72 62 64 69 63 61 62 67 71 59
94 98 97 93 93 92 88 86 80 75 73 75 68 63 61 56 52 42 34 32 29 29 28 35 41 43 41 47 43 42 47 51 60 67 59 64 61 62 68 78 83 87 85 85
95 96 92 89 82 72 69 64 63 57 53 56 49 42 29 20 17 18 18 23 28 30 31 35 42 43 37 48 53 55 50 57 63 72 72 71 76 79 85 90 94 96 99 99
81 74 70 65 60 57 52 48 45 41 39 37 29 23 18 13 14 16 20 25 29 30 33 38 41 40 46 52 54 51 50 54 68 70 66 75 78 83 88 90 93 96 96 93
61 61 54 47 43 39 37 40 34 26 17 17 27 18 19 20 22 21 22 22 23 25 28 31 34 34 44 57 61 44 49 56 57 62 66 75 80 88 91 96 96 92 87 78
52 47 40 36 30 24 22 22 25 20 15 17 28 31 35 39 36 37 39 39 38 39 43 43 40 40 47 56 53 43 50 56 62 68 77 82 86 88 87 84 82 80 78 73
43 35 29 25 21 16 17 19 21 20 20 25 35 40 39 40 40 44 48 51 54 54 51 50 53 52 57 61 47 51 59 64 70 75 81 82 80 81 81 77 74 73 71 69
31 23 16 11 10 14 20 17 19 21 26 35 40 42 50 41 45 49 51 52 53 52 58 59 58 62 64 50 51 55 62 70 75 77 75 75 77 78 76 74 75 73 69 63
15 10 11 16 24 19 15 17 22 25 30 35 41 40 47 42 48 48 48 52 55 56 51 55 59 58 56 58 58 58 69 74 79 79 76 79 80 78 76 74 74 73 72 72
15 16 22 28 26 22 24 28 32 34 37 38 41 44 45 44 45 51 53 60 58 62 59 64 65 58 52 56 59 69 78 81 87 84 85 86 87 86 87 86 83 84 83 82
20 19 25 25 25 27 34 39 39 42 44 43 45 44 45 48 50 52 55 59 63 61 67 75 73 76 72 74 81 87 90 92 87 87 90 92 91 89 90 91 90 87 84 82
17 19 25 30 32 38 38 43 46 47 45 46 49 52 47 54 58 60 65 69 70 65 76 77 81 90 92 95 96 97 97 94 95 93 92 92 91 90 91 92 93 91 85 79
22 26 33 36 39 43 47 52 51 49 53 55 54 49 57 64 68 67 65 63 64 70 73 84 95 96 96 96 97 95 90 89 93 93 94 91 91 87 84 87 87 84 80 79
29 31 41 43 47 50 47 50 55 57 59 57 58 65 66 69 68 69 68 71 73 74 86 91 95 95 98 92 90 88 89 89 86 86 83 84 82 79 76 76 76 76 76 79
41 40 45 48 47 49 47 48 53 56 57 55 59 66 68 68 68 71 70 71 73 83 89 89 91 93 92 87 84 82 81 77 75 74 73 75 76 77 76 76 78 79 81 84
47 46 45 46 46 46 45 43 43 47 50 55 60 64 63 64 68 67 68 76 79 82 85 87 90 87 79 73 67 60 60 61 62 60 63 65 66 68 71 71 71 74 80 84

GFSNW_prec_cthk_216.txt.gz
RH
93 85 69 64 65 63 64 68 70 58 62 67 72 77 73 72 71 78 83 85 86 86 89 90 89 87 82 78 79 81 80 83 81 75 68 65 65 69 79 95 94 98 97 80
98 93 86 79 76 66 66 73 71 64 67 70 73 77 81 82 80 81 89 91 90 90 92 97 90 88 88 86 85 87 85 90 87 71 65 65 74 73 82 94 96 92 97 89
96 98 98 88 74 68 71 75 76 77 73 73 74 79 81 84 82 91 86 94 93 94 96 96 94 94 93 93 93 92 92 94 93 86 76 78 86 81 91 94 95 92 92 85
98 95 94 95 86 76 76 74 79 75 73 72 76 77 79 90 95 94 93 95 94 97 98 98 97 95 96 95 94 95 96 93 90 87 84 84 87 89 90 94 96 97 87 93
94 91 95 98 94 90 82 78 82 79 74 75 81 83 89 86 91 95 96 97 95 97 98 97 98 98 99 97 93 97 95 93 89 84 78 77 78 80 80 80 80 83 73 65
95 94 97 97 98 96 91 84 80 81 83 86 85 85 92 91 90 96 96 96 98 98 97 98 98 97 97 97 96 96 94 92 91 83 75 76 77 69 65 61 57 59 60 51
97 98 97 96 99 92 92 91 90 90 92 90 88 91 93 95 97 97 97 98 98 98 99 98 98 98 98 96 95 94 93 93 91 88 80 83 61 55 51 52 44 45 51 58
98 98 97 98 95 98 94 95 96 92 93 94 98 97 98 99 99 98 98 98 98 98 97 97 92 86 83 77 82 90 91 91 91 88 76 50 32 42 44 46 47 44 58 60
99 98 95 95 96 99 98 99 97 96 98 96 98 98 97 98 99 98 98 98 98 98 96 95 95 89 72 68 62 61 70 67 55 53 59 60 37 43 53 55 53 51 53 55
94 96 98 96 96 98 99 98 99 99 98 98 98 98 98 98 98 98 98 98 97 93 89 91 84 79 71 70 59 54 45 44 48 51 57 46 35 44 45 57 44 40 48 55
97 98 97 97 99 99 98 98 98 98 97 98 98 98 97 98 98 97 97 97 92 90 90 87 82 72 60 52 38 31 30 41 47 51 57 53 38 45 48 40 46 49 60 69
97 95 96 97 98 98 98 98 98 98 97 98 99 98 98 97 96 95 93 89 80 81 77 69 60 52 43 34 38 29 37 32 39 40 37 29 34 34 37 46 52 61 65 73
96 99 99 98 98 98 97 98 99 97 97 98 96 93 94 95 89 84 83 74 61 54 45 41 38 31 30 37 35 28 26 29 37 35 28 31 32 34 44 52 62 67 73 79
98 98 95 99 99 99 99 98 98 97 97 96 87 87 85 85 81 74 64 54 44 33 28 24 27 26 25 30 27 30 27 30 32 35 32 33 33 39 43 53 63 68 75 81
94 97 99 99 99 98 99 97 98 95 89 91 84 81 78 71 63 55 43 29 25 23 23 28 29 27 28 31 35 35 28 28 34 36 29 33 38 44 49 59 67 71 76 78
97 99 98 99 99 98 96 90 85 78 70 71 80 75 66 52 37 25 22 22 20 22 25 28 28 29 28 35 39 25 23 25 28 31 34 39 46 53 59 67 70 73 76 76
94 98 97 97 95 89 76 72 72 67 59 55 61 55 39 29 24 21 18 18 19 20 22 24 26 29 31 38 39 27 31 35 37 40 45 49 54 63 69 73 75 75 76 76
88 90 87 82 76 68 65 62 58 51 42 35 39 41 32 30 31 34 34 35 36 39 40 42 44 44 44 43 33 34 37 39 44 48 51 56 66 71 73 74 77 77 77 76
82 80 76 68 57 56 54 48 42 35 30 32 29 32 38 34 38 38 38 39 42 41 45 44 45 45 43 33 35 36 41 50 54 59 67 72 77 78 79 78 78 79 80 80
74 66 57 51 42 32 32 28 24 24 26 26 35 33 37 34 38 40 39 41 44 45 44 48 49 42 35 38 42 48 50 56 60 61 70 76 80 84 87 91 90 91 91 90
54 46 45 38 34 31 28 31 28 25 29 30 33 29 31 34 35 40 42 45 47 50 51 52 52 48 44 47 56 63 64 70 77 82 89 91 92 93 94 93 92 92 93 93
26 26 28 28 27 22 23 32 31 29 30 32 32 31 32 38 38 40 46 45 49 51 53 58 57 48 52 61 68 68 70 73 78 78 87 90 92 91 90 87 89 92 93 94
25 24 20 19 21 24 24 35 36 36 33 33 33 38 37 40 40 42 46 49 54 57 60 59 53 54 61 67 72 76 83 82 84 87 90 93 94 95 96 89 86 85 83 86
13 16 24 23 30 31 30 29 32 32 31 31 34 37 37 41 44 48 50 51 56 64 65 58 57 58 65 73 80 84 89 88 87 87 86 85 84 79 75 75 73 72 73 76
16 18 32 33 34 35 33 32 32 34 36 37 40 39 40 49 51 55 55 59 60 58 56 58 59 64 70 76 82 86 89 92 92 85 76 69 67 66 66 67 69 73 76 78
22 28 35 40 39 43 41 40 39 38 38 39 36 43 48 53 53 56 56 55 52 51 59 61 65 69 76 81 85 89 85 78 78 80 82 83 84 86 86 86 89 88 87 82
30 36 35 38 39 40 38 38 39 39 40 41 38 43 46 49 53 55 53 53 52 54 61 66 70 72 73 73 74 72 70 74 78 81 81 81 82 84 82 82 78 73 70 69

GFSNW_prec_cthk_219.txt.gz
RH
98 97 95 84 72 66 65 59 61 62 62 67 68 66 65 62 56 59 61 69 74 78 82 85 83 85 83 80 78 78 77 84 85 77 73 72 72 74 81 97 91 98 94 70
98 98 96 91 78 69 68 65 69 66 64 68 69 67 66 67 62 64 65 74 79 79 87 93 88 86 83 83 85 88 87 90 89 77 71 69 75 76 85 98 97 94 97 76
99 98 97 97 87 79 75 72 77 76 68 68 65 69 70 70 65 70 74 83 89 88 94 92 92 94 91 90 90 92 91 92 92 88 81 84 89 81 84 89 92 80 84 78
96 97 97 99 96 88 73 76 76 73 70 71 66 64 67 70 74 76 80 86 84 92 98 98 96 96 98 96 95 96 96 94 95 91 88 88 91 93 91 90 85 90 76 83
97 96 97 97 99 98 87 80 75 73 75 72 74 75 75 73 75 80 83 88 85 95 95 94 98 96 97 96 95 97 96 95 93 92 86 85 83 78 80 79 80 77 65 56
98 92 95 99 98 96 91 81 77 75 78 78 76 71 71 72 80 83 81 87 95 98 97 98 98 98 96 97 97 97 96 97 94 85 81 79 75 70 67 60 52 49 45 36
97 93 95 96 97 97 90 86 84 85 84 80 75 75 74 79 82 85 91 93 98 97 98 98 98 98 97 98 99 99 97 96 96 91 82 86 66 59 48 39 38 28 31 36
95 90 97 96 98 98 97 92 89 86 86 80 84 83 89 94 96 98 97 98 98 98 98 98 97 92 88 88 97 96 97 97 96 93 86 69 50 40 33 30 26 28 35 32
91 97 98 91 97 98 99 98 93 94 92 91 91 97 97 97 98 98 98 98 98 98 98 98 96 91 77 71 67 78 92 94 84 82 66 45 28 30 31 32 34 31 34 36
94 92 95 92 96 97 99 98 99 98 98 97 97 97 97 97 97 98 98 98 98 98 96 96 94 84 76 75 68 71 82 76 66 55 50 33 22 31 36 40 28 30 35 40
89 91 95 96 98 99 98 97 99 98 98 99 98 98 98 98 97 97 98 98 96 95 94 92 87 81 75 72 65 58 47 43 44 46 50 43 27 37 37 26 28 35 41 45
82 89 92 96 98 99 98 98 98 99 98 96 98 99 97 98 96 97 98 95 89 87 87 87 83 77 69 58 44 34 31 24 29 29 26 21 27 25 25 26 33 39 43 46
86 96 98 99 99 98 98 98 99 99 97 98 98 98 98 98 98 96 96 87 83 83 77 73 64 50 41 38 30 24 24 23 28 26 20 25 27 28 29 31 36 40 47 50
97 98 99 98 98 98 99 98 99 96 97 97 97 98 97 97 93 90 87 81 73 64 54 45 39 30 28 28 23 24 21 24 27 30 25 26 26 28 31 37 40 46 55 58
98 99 98 98 98 98 98 99 98 97 96 97 96 92 90 88 86 83 76 68 55 46 38 32 27 25 22 24 26 26 21 22 28 26 23 28 29 34 38 42 46 54 60 61
95 98 97 98 98 98 98 97 97 97 96 95 95 88 84 82 78 71 59 50 34 30 29 27 24 23 23 28 28 19 21 21 24 27 30 34 37 39 43 48 59 64 64 66
99 98 98 99 99 98 97 94 94 94 90 86 90 86 79 73 63 48 35 32 30 26 21 23 23 25 26 30 28 23 25 30 36 39 42 44 45 46 50 62 70 68 66 71
98 99 98 99 97 94 88 84 77 75 69 68 74 78 69 49 37 36 29 24 23 24 28 33 32 32 33 36 27 30 32 37 38 42 46 50 52 55 65 71 76 77 76 78
99 96 91 80 72 72 71 68 64 57 52 55 53 50 49 41 41 38 33 31 34 35 37 37 38 39 40 31 33 37 39 45 47 51 55 56 63 71 76 77 77 77 86 89
90 80 71 69 71 61 56 49 44 42 44 46 47 40 41 37 35 35 34 34 36 37 38 42 44 39 33 34 38 43 47 50 53 59 66 70 74 78 81 88 92 95 97 96
74 71 75 66 58 51 39 36 35 33 37 36 36 31 30 31 30 33 34 38 41 44 45 48 48 45 41 46 50 55 59 60 62 64 65 68 73 81 89 93 96 95 93 93
68 69 60 51 41 32 31 42 39 32 33 32 29 28 28 30 30 35 40 40 44 46 51 53 52 45 49 50 54 57 62 66 66 65 70 77 84 88 90 95 96 95 96 98
51 44 40 27 28 31 31 38 35 32 30 29 28 32 31 32 30 37 41 44 47 52 55 51 46 48 52 56 59 62 64 68 74 81 84 83 86 87 86 85 86 86 83 92
25 25 34 33 34 29 24 25 26 28 28 27 26 29 31 35 38 42 46 48 50 56 55 48 51 52 55 57 60 66 71 77 80 83 83 81 77 74 78 81 80 79 80 80
22 22 33 33 33 31 29 26 25 27 26 23 28 32 36 43 47 48 48 52 52 50 47 51 52 54 57 63 67 70 72 74 78 81 83 81 76 78 79 81 81 83 86 90
23 28 36 36 31 32 29 28 28 27 29 30 30 38 41 46 45 48 47 45 45 43 50 52 56 61 64 65 63 61 60 62 67 69 71 74 74 73 71 69 68 67 68 65
30 36 34 33 33 32 31 31 31 31 30 33 34 38 38 46 48 48 45 45 44 49 53 56 59 60 60 56 50 48 50 52 54 53 53 54 52 50 50 50 56 56 60 62

GFSNW_prec_cthk_222.txt.gz
RH
35 68 92 96 98 95 93 88 83 73 69 67 62 66 62 52 47 53 54 54 55 59 65 68 70 71 68 76 76 80 80 88 87 79 77 76 73 74 76 91 83 86 86 69
48 63 94 97 99 97 91 88 83 76 72 68 72 71 65 56 53 51 55 59 60 66 73 79 74 75 73 78 82 88 88 93 91 81 72 68 71 74 75 85 94 89 93 75
60 69 86 98 97 98 94 92 89 85 72 65 66 73 71 61 60 58 61 65 67 72 77 81 85 85 80 82 87 92 94 93 92 91 80 90 92 81 83 90 97 85 81 71
54 71 80 91 98 99 95 88 82 70 73 71 67 68 66 65 66 66 65 71 67 70 85 88 87 84 87 89 95 98 98 95 94 92 92 92 91 93 94 94 90 93 79 80
65 76 88 99 99 99 97 86 77 76 70 71 72 69 66 62 66 70 71 70 70 78 81 82 88 91 92 93 96 99 98 96 92 91 83 81 80 80 82 84 84 81 76 65
70 75 83 93 98 99 95 86 78 72 71 73 73 71 60 63 65 65 67 71 79 82 83 94 94 96 96 95 95 99 97 96 93 87 79 77 75 71 70 67 68 61 52 39
71 74 87 95 99 97 91 88 80 81 79 73 69 71 72 72 70 69 76 84 84 92 91 97 96 97 98 96 94 96 96 98 97 91 83 90 65 61 61 60 45 33 28 25
77 84 91 96 96 99 98 97 87 81 81 78 79 77 78 82 81 83 87 87 90 93 97 98 98 95 93 94 95 95 98 99 96 94 82 72 67 64 48 35 25 19 24 26
83 86 96 96 98 99 99 98 95 88 86 84 82 84 82 84 86 92 91 92 98 97 98 98 97 93 82 74 73 88 97 98 98 92 93 77 52 39 30 26 21 24 26 26
85 83 83 88 96 97 99 99 94 94 93 94 92 89 90 91 92 94 97 98 98 98 98 98 95 91 79 78 72 84 89 95 94 91 85 55 31 32 26 30 36 26 24 28
89 84 87 93 98 99 99 98 98 97 97 98 96 97 97 97 97 97 98 98 97 98 98 97 92 86 77 76 68 72 78 79 73 60 60 44 28 32 28 27 21 23 28 34
90 92 97 99 98 99 98 99 98 99 97 97 98 98 99 98 97 97 98 98 96 96 97 95 86 83 79 76 77 68 59 42 37 29 24 23 22 21 21 22 23 25 28 36
95 95 98 99 98 98 98 98 99 99 97 98 99 98 99 98 98 97 97 98 93 94 89 87 86 80 72 66 52 37 31 28 25 24 15 18 23 23 25 28 29 31 33 39
97 98 99 99 98 98 98 99 99 98 96 97 97 98 98 98 98 98 98 96 93 88 86 81 73 59 49 41 32 27 27 24 21 24 22 21 21 23 25 27 29 33 37 44
97 96 96 95 93 97 99 99 99 98 96 96 97 98 97 98 96 92 90 88 83 78 70 61 52 39 30 28 27 21 19 18 26 23 21 23 23 25 30 33 36 39 44 55
97 96 96 97 97 98 99 98 98 98 96 96 96 97 96 92 89 87 84 79 70 61 51 38 31 29 28 26 20 16 17 18 19 23 28 30 33 36 39 41 43 48 57 68
90 97 99 99 98 99 97 95 96 97 96 96 96 95 93 89 86 82 76 65 52 41 34 30 27 24 23 27 20 20 19 22 25 30 33 35 39 43 47 48 52 63 70 75
96 98 98 98 98 98 98 98 98 97 93 94 95 93 89 85 84 74 57 44 36 31 28 24 23 25 25 28 23 25 26 28 31 34 36 39 43 48 52 60 67 74 79 83
98 98 99 98 98 97 96 91 88 83 74 78 81 89 86 79 66 50 41 38 39 34 35 32 30 32 34 28 28 29 33 37 40 42 46 50 56 63 70 74 81 84 87 90
97 98 96 93 90 85 82 73 68 62 64 61 66 65 61 51 45 45 41 36 35 36 34 32 37 31 31 29 32 36 42 45 46 48 54 58 61 65 68 75 80 85 92 96
95 84 84 80 72 63 59 58 54 53 55 50 50 42 37 38 36 34 33 35 33 35 41 39 36 36 37 36 38 41 43 47 55 58 61 64 68 74 79 80 82 86 92 95
82 73 67 63 57 55 54 55 45 36 41 41 41 37 34 31 28 29 31 35 35 39 40 42 40 37 38 38 41 45 51 56 60 65 71 75 81 84 86 88 87 83 74 80
69 64 58 52 44 46 42 45 41 42 37 33 29 31 27 26 27 30 34 38 39 40 44 39 35 41 41 45 48 52 56 64 69 72 74 75 76 82 86 88 89 87 79 79
55 54 52 48 43 32 32 31 27 32 27 25 24 25 28 29 31 33 38 39 40 42 43 40 44 44 47 51 56 59 61 60 62 60 66 69 76 81 86 86 83 78 74 73
47 42 47 41 39 36 33 27 23 23 21 20 25 27 29 33 36 35 38 42 40 39 40 45 47 48 53 58 60 59 58 52 52 52 50 50 49 50 54 53 56 55 55 54
39 40 41 41 35 34 29 27 25 23 23 21 22 28 30 34 35 38 38 32 33 36 44 46 49 53 56 57 54 48 44 43 37 38 41 45 46 46 48 51 55 54 59 57
33 40 37 30 28 30 30 25 23 24 22 27 25 27 33 38 38 36 34 39 41 43 47 48 50 52 49 45 42 38 34 33 36 40 44 46 49 50 53 57 57 60 61 63

GFSNW_prec_cthk_225.txt.gz
RH
24 20 21 26 44 47 76 80 95 93 91 97 83 69 63 58 59 55 51 48 43 45 45 49 54 60 60 61 65 71 78 80 88 81 76 72 71 69 74 91 74 73 79 65
28 24 24 28 59 60 73 78 91 97 98 93 81 73 71 62 63 60 55 53 48 49 47 57 52 60 66 71 73 73 84 88 95 91 79 76 73 71 71 74 81 82 88 69
32 28 29 29 58 61 90 97 89 93 96 77 75 74 69 70 73 61 56 53 58 57 54 51 58 67 71 72 76 79 88 93 96 94 80 88 89 77 75 83 95 82 82 73
35 31 32 33 78 81 98 98 87 86 81 77 75 74 75 74 74 63 59 60 58 52 62 58 65 71 74 81 80 83 93 96 95 93 93 93 89 89 86 88 88 94 76 80
40 33 38 40 73 97 97 98 94 92 90 81 78 83 76 73 73 61 60 61 61 59 64 63 64 70 76 81 86 91 95 96 96 94 93 91 88 84 83 86 83 82 80 74
51 39 41 39 59 87 98 91 96 91 87 83 84 73 74 73 69 62 63 62 68 66 67 74 81 80 85 91 91 96 96 98 98 93 89 76 73 67 65 65 68 73 80 71
59 43 44 50 57 97 96 92 97 89 85 83 76 74 76 71 68 66 62 69 70 72 77 82 84 88 92 91 94 95 97 100 99 96 88 88 61 55 58 61 64 64 55 41
49 42 47 68 74 94 98 98 96 94 93 83 81 79 72 73 72 71 73 76 75 79 85 94 96 96 96 89 95 96 97 99 98 96 88 69 68 58 59 58 54 42 29 25
48 41 49 64 76 89 99 98 98 94 90 83 81 79 78 77 78 85 84 84 87 92 95 98 98 97 89 89 83 92 95 98 98 97 94 82 64 59 58 53 30 23 26 23
48 45 48 52 65 95 90 98 99 96 94 91 89 83 79 77 82 83 87 91 95 96 97 98 98 98 93 89 79 87 95 97 96 95 96 79 68 61 52 36 33 31 22 21
48 46 48 62 84 95 98 98 99 98 94 96 94 93 90 88 87 88 89 95 97 98 98 98 98 98 89 84 81 77 84 93 92 88 96 90 59 44 32 31 27 21 21 23
53 51 51 77 94 97 99 98 98 99 98 97 98 97 96 94 95 93 96 96 96 97 98 98 97 94 86 82 92 72 77 79 77 72 60 46 36 29 23 21 22 23 24 25
57 54 62 82 92 96 98 98 97 98 97 98 99 98 98 98 98 97 96 98 98 98 98 97 96 95 91 94 87 74 70 62 53 37 27 25 26 25 24 26 29 32 35 35
64 71 87 90 92 97 98 98 99 98 96 97 98 98 98 98 99 98 98 96 98 98 98 97 95 86 80 73 66 57 47 41 36 33 22 19 18 20 23 27 27 29 31 35
93 87 90 97 98 98 97 98 98 98 95 96 97 98 98 98 98 98 98 97 97 97 93 87 80 72 65 55 45 37 30 30 29 28 23 24 24 26 29 31 34 38 40 42
96 98 99 98 95 96 99 98 99 98 97 95 97 97 97 97 98 98 97 94 91 87 81 76 67 57 49 44 34 28 19 15 16 21 24 26 28 33 34 36 38 39 43 46
91 98 99 98 99 99 98 94 93 98 97 96 97 96 96 97 97 96 93 89 84 78 68 58 51 40 36 33 24 19 18 18 21 24 27 31 35 37 39 44 45 48 50 58
97 97 98 98 98 98 98 99 99 98 97 98 96 95 96 97 95 93 91 82 72 62 51 41 33 31 28 26 23 22 24 27 30 30 35 38 37 43 47 51 53 57 58 63
97 99 99 98 98 98 98 98 97 96 96 96 94 91 94 93 94 89 80 67 63 45 46 37 33 34 31 30 29 27 31 32 36 37 40 42 44 48 52 58 60 66 63 68
99 99 98 98 98 99 97 97 93 89 88 90 91 86 93 92 88 79 63 58 54 46 39 32 30 31 33 28 29 32 37 41 42 42 44 47 50 52 56 63 69 74 80 84
97 97 97 98 96 89 83 82 80 81 81 84 85 87 84 80 69 62 48 42 37 37 35 37 38 38 35 32 34 36 39 42 45 47 50 54 58 64 64 66 71 74 77 82
95 92 91 87 82 77 71 70 66 64 65 67 71 74 67 55 40 37 33 30 32 36 32 37 41 44 36 38 39 40 41 43 48 49 50 51 52 57 68 75 79 85 87 87
88 80 76 76 66 68 60 68 61 62 61 58 51 43 31 33 30 29 28 33 36 33 38 37 42 44 37 37 40 42 44 45 47 49 47 44 45 47 49 51 54 53 57 56
77 72 73 68 65 58 53 49 53 47 43 38 32 27 30 27 28 29 34 33 31 40 40 38 45 38 41 45 43 46 46 45 44 42 38 34 33 33 35 35 35 46 48 46
64 62 68 66 61 58 50 39 31 31 27 27 24 25 26 30 32 29 30 37 38 32 36 46 42 43 42 44 45 44 42 38 33 33 36 36 37 33 39 43 48 54 52 53
65 67 58 52 45 46 40 32 29 26 23 21 19 23 25 29 29 29 33 29 30 38 45 44 41 43 44 43 41 36 31 29 30 36 36 36 37 40 42 46 51 52 53 55
63 59 48 46 42 42 36 27 27 25 20 24 22 27 29 29 29 30 29 37 44 43 41 42 41 41 40 38 36 28 28 30 32 35 36 37 37 38 41 44 48 51 53 55

GFSNW_prec_cthk_228.txt.gz
RH
24 24 21 18 20 23 59 87 61 61 69 91 95 86 70 70 66 65 70 63 61 60 50 55 51 56 53 54 53 52 60 61 68 64 66 66 70 72 77 92 80 79 81 72
32 25 26 20 22 22 42 70 77 81 71 87 82 67 75 75 70 67 76 69 59 62 52 55 53 53 57 62 56 58 62 68 68 61 66 72 77 82 78 77 84 87 90 73
37 26 26 24 23 25 37 61 78 89 85 69 69 70 68 73 69 69 76 73 66 65 60 53 53 54 62 63 63 68 71 71 73 75 72 79 91 88 85 87 97 87 83 71
41 34 28 27 25 29 44 55 65 67 89 72 47 58 60 71 73 69 70 75 73 69 70 58 57 55 70 71 70 70 74 86 73 71 75 80 83 90 94 94 92 97 74 79
49 45 31 29 29 35 52 65 71 60 59 71 90 76 61 61 70 69 70 75 74 68 71 68 58 61 65 69 80 76 82 89 82 85 84 87 86 88 86 89 88 81 77 77
55 51 40 33 35 43 51 81 69 77 85 80 81 69 49 63 76 70 73 78 75 77 74 69 74 73 80 77 79 86 88 93 95 87 89 90 87 79 72 71 74 81 86 80
64 59 50 38 41 39 45 71 70 74 78 87 65 64 73 73 67 77 84 82 80 77 77 78 79 82 80 81 82 88 94 98 99 94 98 92 64 59 61 62 62 67 69 68
65 63 52 43 42 40 48 66 81 71 81 95 91 82 77 80 79 86 84 87 84 86 86 87 88 81 78 80 85 91 93 98 98 98 97 77 71 68 63 62 61 61 63 59
66 66 61 47 44 43 47 65 76 84 88 95 95 84 84 90 91 94 95 96 91 88 90 89 88 87 83 92 93 93 94 97 98 98 97 89 69 61 60 60 63 55 46 34
69 74 73 55 52 47 49 58 83 95 94 91 90 88 79 83 87 92 95 94 96 93 90 91 93 90 84 96 96 96 95 97 96 97 97 86 74 62 66 72 66 43 28 24
83 84 84 67 59 51 52 53 85 95 92 98 95 95 85 88 86 90 92 96 95 95 96 95 96 96 96 93 85 86 89 94 94 96 97 94 71 72 74 58 39 30 26 23
96 97 91 81 62 50 54 59 82 98 99 98 99 96 92 93 91 90 95 90 90 89 95 96 98 98 97 93 98 85 92 88 95 86 87 77 71 63 46 35 31 23 23 26
98 97 94 75 57 56 56 62 83 98 97 99 98 98 96 95 94 93 94 96 94 94 95 97 98 98 95 97 96 89 83 78 82 78 69 60 49 36 32 28 27 26 26 27
98 93 73 54 49 54 68 73 74 98 98 98 97 98 98 98 98 97 94 93 96 97 98 98 98 98 93 96 89 80 80 68 65 59 46 36 29 27 24 24 25 26 28 31
82 64 56 56 55 60 77 85 89 94 97 96 98 99 98 98 98 98 98 98 97 98 98 98 98 90 85 83 75 69 58 52 54 46 38 32 23 23 25 26 29 32 36 37
68 59 53 56 56 58 68 97 99 98 98 97 98 97 98 98 98 99 98 98 98 98 98 95 82 80 83 70 61 54 43 37 32 29 25 24 24 26 28 35 36 36 41 46
67 56 51 56 62 59 72 84 86 97 99 97 98 97 97 97 98 98 98 98 97 93 89 83 78 74 70 62 53 45 33 26 22 21 23 24 28 34 38 41 50 52 57 57
70 65 74 94 87 95 98 98 96 99 97 98 97 96 96 97 97 97 97 95 91 87 80 75 72 58 52 49 39 34 26 25 27 29 30 33 38 39 42 47 46 50 55 65
86 96 98 99 93 97 98 98 98 98 97 97 96 92 95 96 97 97 96 92 90 75 74 66 57 52 47 38 32 28 29 29 32 33 35 38 40 45 46 48 51 56 61 65
98 99 98 99 99 98 100 99 98 98 98 98 93 87 92 94 95 95 87 86 77 74 68 60 52 48 41 30 27 30 30 35 36 35 41 44 44 48 50 50 51 51 57 61
98 98 96 96 98 98 98 98 97 97 97 95 92 92 94 94 91 86 77 78 70 71 63 54 43 41 37 31 34 35 37 37 39 43 45 49 47 42 40 40 42 43 46 54
97 94 95 95 98 96 96 95 92 85 86 85 89 93 90 88 81 77 73 63 61 54 38 42 39 46 38 34 37 39 38 39 41 44 44 40 35 32 29 29 28 26 32 34
95 93 94 95 88 87 84 86 76 76 74 83 85 88 86 81 74 64 56 48 45 34 36 36 53 45 39 37 38 42 39 43 43 39 35 30 25 24 22 27 27 29 35 38
93 91 91 90 79 67 59 60 70 72 74 82 85 80 74 66 54 41 36 35 31 39 38 36 49 47 40 41 39 42 44 38 35 29 28 25 22 22 23 25 26 35 35 32
86 83 86 76 73 74 70 67 66 67 71 69 67 57 42 33 34 30 29 34 35 31 35 48 41 41 37 38 41 41 38 33 27 26 25 24 22 23 26 28 31 33 31 33
82 82 78 78 79 77 72 66 60 57 52 42 30 27 25 28 27 27 30 29 27 39 47 43 39 36 38 39 36 34 26 22 24 24 24 27 25 26 28 30 33 32 35 38
86 85 78 77 72 70 61 51 42 36 31 29 21 25 25 25 27 27 25 38 44 41 41 39 35 38 39 38 35 26 23 23 22 24 24 26 26 27 27 30 32 36 39 43